When you browse on this site, cookies collect data to enhance your experience and personalize the content and advertising you see.
Visit our Privacy Policy to learn more. By continuing to use the site, you agree to this use of cookies and data.
  • In Latvia
  • List of Countries
  • For 7 days
  • Water Temperature
  • Weather Map
  • Weather Widgets
  • user-avatar
    Login

    Hourly Weather La Rioja

    Today, 23 February, Sunday

    Time Temperature Precipitation Wind Pressure Humidity
    00:00 +20°C° 0 mm 1 mps 718 mmHg 54%
    01:00 +20°C° 0 mm 1 mps 717 mmHg 56%
    02:00 +19°C° 0 mm 1 mps 717 mmHg 57%
    03:00 +17°C° 0 mm 0 mps 716 mmHg 58%
    04:00 +17°C° 0 mm 0 mps 716 mmHg 59%
    05:00 +16°C° 0 mm 0 mps 715 mmHg 60%
    06:00 +19°C° 0 mm 1 mps 716 mmHg 56%
    07:00 +21°C° 0 mm 1 mps 716 mmHg 52%
    08:00 +22°C° 0 mm 1 mps 716 mmHg 48%
    09:00 +23°C° 0 mm 1 mps 716 mmHg 46%
    10:00 +24°C° 0 mm 2 mps 715 mmHg 43%
    11:00 +26°C° 0 mm 2 mps 715 mmHg 41%
    12:00 +27°C° 0 mm 2 mps 714 mmHg 40%
    13:00 +28°C° 0 mm 2 mps 713 mmHg 39%
    14:00 +29°C° 0 mm 2 mps 713 mmHg 38%
    15:00 +29°C° 0 mm 2 mps 712 mmHg 37%
    16:00 +29°C° 0 mm 2 mps 711 mmHg 37%
    17:00 +30°C° 0 mm 2 mps 710 mmHg 37%
    18:00 +28°C° 0 mm 2 mps 710 mmHg 41%
    19:00 +27°C° 0 mm 2 mps 711 mmHg 45%
    20:00 +25°C° 0 mm 2 mps 711 mmHg 49%
    21:00 +25°C° 0 mm 1 mps 711 mmHg 52%
    22:00 +24°C° 0 mm 1 mps 711 mmHg 54%
    23:00 +23°C° 0 mm 1 mps 711 mmHg 57%

    Tomorrow, 24 February, Monday

    Time Temperature Precipitation Wind Pressure Humidity
    00:00 +23°C° 0 mm 1 mps 711 mmHg 59%
    01:00 +23°C° 0 mm 1 mps 711 mmHg 61%
    02:00 +20°C° 0 mm 0 mps 710 mmHg 63%
    03:00 +22°C° 0 mm 1 mps 710 mmHg 64%
    04:00 +22°C° 0 mm 1 mps 710 mmHg 64%
    05:00 +21°C° 0 mm 1 mps 709 mmHg 65%
    06:00 +22°C° 0 mm 1 mps 709 mmHg 61%
    07:00 +24°C° 0 mm 1 mps 709 mmHg 57%
    08:00 +25°C° 0 mm 2 mps 710 mmHg 53%
    09:00 +26°C° 0 mm 2 mps 709 mmHg 50%
    10:00 +28°C° 0 mm 2 mps 709 mmHg 47%
    11:00 +29°C° 0 mm 2 mps 709 mmHg 44%
    12:00 +30°C° 0 mm 2 mps 708 mmHg 42%
    13:00 +31°C° 0 mm 2 mps 707 mmHg 40%
    14:00 +32°C° 0 mm 2 mps 707 mmHg 39%
    15:00 +32°C° 0 mm 2 mps 706 mmHg 38%
    16:00 +32°C° 0 mm 2 mps 706 mmHg 37%
    17:00 +34°C° 0 mm 2 mps 705 mmHg 36%
    18:00 +31°C° 0 mm 2 mps 706 mmHg 39%
    19:00 +30°C° 0 mm 2 mps 706 mmHg 43%
    20:00 +28°C° 0 mm 2 mps 707 mmHg 46%
    21:00 +28°C° 0 mm 2 mps 707 mmHg 47%
    22:00 +27°C° 0 mm 3 mps 708 mmHg 48%
    23:00 +27°C° 0 mm 3 mps 709 mmHg 49%

    Day after tomorrow, 25 February, Tuesday

    Time Temperature Precipitation Wind Pressure Humidity
    00:00 +27°C° 0 mm 3 mps 709 mmHg 51%
    01:00 +26°C° 0 mm 3 mps 710 mmHg 52%
    02:00 +26°C° 0 mm 3 mps 710 mmHg 54%
    03:00 +25°C° 0 mm 4 mps 711 mmHg 54%
    04:00 +23°C° 0 mm 5 mps 711 mmHg 55%
    05:00 +22°C° 0 mm 6 mps 712 mmHg 56%
    06:00 +23°C° 0 mm 6 mps 713 mmHg 52%
    07:00 +23°C° 0 mm 6 mps 714 mmHg 48%
    08:00 +23°C° 0 mm 6 mps 715 mmHg 44%
    09:00 +24°C° 0 mm 6 mps 715 mmHg 44%
    10:00 +25°C° 0 mm 5 mps 715 mmHg 43%
    11:00 +26°C° 0 mm 5 mps 716 mmHg 42%
    12:00 +27°C° 0 mm 4 mps 715 mmHg 41%
    13:00 +28°C° 0 mm 4 mps 715 mmHg 41%
    14:00 +29°C° 0 mm 3 mps 715 mmHg 40%
    15:00 +29°C° 0 mm 3 mps 714 mmHg 41%
    16:00 +29°C° 0 mm 3 mps 714 mmHg 41%
    17:00 +29°C° 0 mm 2 mps 713 mmHg 41%
    18:00 +28°C° 0 mm 2 mps 714 mmHg 45%
    19:00 +27°C° 0 mm 1 mps 714 mmHg 50%
    20:00 +25°C° 0 mm 1 mps 715 mmHg 54%
    21:00 +25°C° 0 mm 1 mps 715 mmHg 54%
    22:00 +25°C° 0 mm 1 mps 716 mmHg 55%
    23:00 +24°C° 0 mm 1 mps 716 mmHg 55%

    26 February, Wednesday

    Time Temperature Precipitation Wind Pressure Humidity
    00:00 +24°C° 0 mm 1 mps 716 mmHg 55%
    01:00 +24°C° 0 mm 1 mps 716 mmHg 55%
    02:00 +23°C° 0 mm 1 mps 716 mmHg 55%
    03:00 +23°C° 0 mm 1 mps 716 mmHg 55%
    04:00 +23°C° 0 mm 1 mps 716 mmHg 55%
    05:00 +22°C° 0 mm 1 mps 716 mmHg 55%
    06:00 +24°C° 0 mm 1 mps 716 mmHg 50%
    07:00 +25°C° 0 mm 1 mps 717 mmHg 45%
    08:00 +27°C° 0 mm 1 mps 717 mmHg 41%
    09:00 +28°C° 0 mm 2 mps 717 mmHg 37%
    10:00 +30°C° 0 mm 2 mps 717 mmHg 34%
    11:00 +31°C° 0 mm 3 mps 717 mmHg 30%
    12:00 +33°C° 0 mm 3 mps 716 mmHg 27%
    13:00 +34°C° 0 mm 4 mps 715 mmHg 24%
    14:00 +35°C° 0 mm 4 mps 715 mmHg 21%
    15:00 +35°C° 0 mm 4 mps 714 mmHg 20%
    16:00 +35°C° 0 mm 4 mps 713 mmHg 20%
    17:00 +35°C° 0 mm 5 mps 713 mmHg 19%
    18:00 +33°C° 0 mm 4 mps 713 mmHg 24%
    19:00 +30°C° 0 mm 3 mps 713 mmHg 28%
    20:00 +28°C° 0 mm 3 mps 713 mmHg 33%
    21:00 +27°C° 0 mm 2 mps 714 mmHg 35%
    22:00 +26°C° 0 mm 2 mps 714 mmHg 37%
    23:00 +26°C° 0 mm 1 mps 715 mmHg 39%

    27 February, Thursday

    Time Temperature Precipitation Wind Pressure Humidity
    00:00 +25°C° 0 mm 1 mps 715 mmHg 41%
    01:00 +25°C° 0 mm 1 mps 714 mmHg 42%
    02:00 +24°C° 0 mm 1 mps 714 mmHg 44%
    03:00 +24°C° 0 mm 1 mps 714 mmHg 44%
    04:00 +23°C° 0 mm 1 mps 714 mmHg 44%
    05:00 +23°C° 0 mm 2 mps 714 mmHg 43%
    06:00 +24°C° 0 mm 2 mps 714 mmHg 41%
    07:00 +25°C° 0 mm 2 mps 715 mmHg 39%
    08:00 +26°C° 0 mm 2 mps 715 mmHg 37%
    09:00 +27°C° 0 mm 2 mps 715 mmHg 34%
    10:00 +29°C° 0 mm 2 mps 715 mmHg 31%
    11:00 +30°C° 0 mm 2 mps 714 mmHg 29%
    12:00 +31°C° 0 mm 2 mps 714 mmHg 28%
    13:00 +32°C° 0 mm 2 mps 713 mmHg 27%
    14:00 +34°C° 0 mm 2 mps 712 mmHg 26%
    15:00 +34°C° 0 mm 2 mps 712 mmHg 26%
    16:00 +35°C° 0 mm 3 mps 711 mmHg 25%
    17:00 +35°C° 0 mm 3 mps 710 mmHg 25%
    18:00 +33°C° 0 mm 3 mps 710 mmHg 30%
    19:00 +32°C° 0 mm 4 mps 711 mmHg 34%
    20:00 +29°C° 0 mm 4 mps 711 mmHg 39%
    21:00 +28°C° 0 mm 3 mps 711 mmHg 40%
    22:00 +28°C° 0 mm 3 mps 712 mmHg 42%
    23:00 +27°C° 0 mm 2 mps 712 mmHg 43%

    28 February, Friday

    Time Temperature Precipitation Wind Pressure Humidity
    00:00 +26°C° 0 mm 2 mps 712 mmHg 43%
    01:00 +26°C° 0 mm 2 mps 712 mmHg 44%
    02:00 +26°C° 0 mm 1 mps 712 mmHg 44%
    03:00 +25°C° 0 mm 1 mps 712 mmHg 45%
    04:00 +25°C° 0 mm 2 mps 712 mmHg 46%
    05:00 +24°C° 0 mm 2 mps 712 mmHg 47%
    06:00 +25°C° 0.1 mm 2 mps 712 mmHg 44%
    07:00 +26°C° 0.1 mm 2 mps 713 mmHg 42%
    08:00 +27°C° 0.1 mm 3 mps 713 mmHg 39%
    09:00 +28°C° 0 mm 3 mps 713 mmHg 37%
    10:00 +30°C° 0 mm 3 mps 713 mmHg 34%
    11:00 +31°C° 0 mm 3 mps 713 mmHg 31%
    12:00 +33°C° 0 mm 3 mps 713 mmHg 30%
    13:00 +34°C° 0 mm 2 mps 712 mmHg 29%
    14:00 +35°C° 0 mm 2 mps 712 mmHg 28%
    15:00 +35°C° 0 mm 2 mps 711 mmHg 28%
    16:00 +35°C° 0 mm 2 mps 711 mmHg 27%
    17:00 +35°C° 0 mm 2 mps 710 mmHg 27%
    18:00 +34°C° 0 mm 2 mps 711 mmHg 31%
    19:00 +31°C° 0 mm 2 mps 711 mmHg 35%
    20:00 +29°C° 0 mm 2 mps 712 mmHg 39%
    21:00 +29°C° 0 mm 2 mps 712 mmHg 40%
    22:00 +29°C° 0 mm 2 mps 713 mmHg 42%
    23:00 +29°C° 0 mm 1 mps 714 mmHg 43%
    Show more